FW3938 Weather Reports


time (UTC)temp
C
wind
direction
speed
KPH
gust
KPH
rain 1hr
cm
rain 24hr
cm
rain mn
cm
humidity
%
barometer
mb
20260505223100 25 360 3.2 16.1 0.00 0.00 0.00 44 992.4
20260505221559 25 360 1.6 9.7 0.00 0.00 0.00 44 992.4
20260505220058 25 360 3.2 12.9 0.00 0.00 0.00 43 992.5
20260505214558 26 360 3.2 22.5 0.00 0.00 0.00 43 992.7
20260505213102 26 360 6.4 16.1 0.00 0.00 0.00 44 992.7
20260505211556 25 360 8.0 17.7 0.00 0.00 0.00 43 992.7
20260505210055 26 360 3.2 14.5 0.00 0.00 0.00 42 992.7
20260505204555 26 360 3.2 14.5 0.00 0.00 0.00 42 993.0
20260505203103 26 360 3.2 12.9 0.00 0.00 0.00 43 993.1
20260505201551 26 360 4.8 16.1 0.00 0.00 0.00 43 993.2
20260505200050 26 360 1.6 19.3 0.00 0.00 0.00 43 993.3
20260505194551 26 360 4.8 16.1 0.00 0.00 0.00 44 993.3
20260505193047 26 360 6.4 16.1 0.00 0.00 0.00 43 993.7
20260505191606 26 360 4.8 17.7 0.00 0.00 0.00 44 993.8
20260505190045 26 360 4.8 16.1 0.00 0.00 0.00 42 993.9
20260505184546 26 360 1.6 9.7 0.00 0.00 0.00 45 994.1
20260505183045 26 360 3.2 19.3 0.00 0.00 0.00 44 994.5
20260505181545 27 360 3.2 12.9 0.00 0.00 0.00 44 994.7
20260505180059 27 360 6.4 14.5 0.00 0.00 0.00 42 994.7
20260505174553 28 360 6.4 17.7 0.00 0.00 0.00 39 994.5
20260505173046 28 360 4.8 12.9 0.00 0.00 0.00 43 994.5
20260505171539 27 360 3.2 12.9 0.00 0.00 0.00 42 994.6
20260505170039 26 360 1.6 16.1 0.00 0.00 0.00 45 994.9
20260505164542 26 360 3.2 12.9 0.00 0.00 0.00 45 995.3
20260505163038 27 360 3.2 9.7 0.00 0.00 0.00 46 995.4
20260505161536 27 360 0.0 12.9 0.00 0.00 0.00 46 995.4
20260505153029 26 360 4.8 14.5 0.00 0.00 0.00 50 995.7
20260505151525 26 360 3.2 9.7 0.00 0.00 0.00 52 995.8
20260505124547 16 360 0.0 12.9 0.00 0.00 0.00 79 995.9
20260505123044 14 360 1.6 6.4 0.00 0.00 0.00 83 995.9
20260505121543 13 360 1.6 8.0 0.00 0.00 0.00 86 995.6
20260505120042 12 360 0.0 3.2 0.00 0.00 0.00 89 995.5
20260505114541 11 360 0.0 4.8 0.00 0.00 0.00 88 995.4
20260505113047 11 360 0.0 1.6 0.00 0.00 0.00 86 995.4
20260505111538 11 360 0.0 0.0 0.00 0.00 0.00 85 995.4
20260505101546 13 360 0.0 1.6 0.00 0.00 0.00 79 994.9
20260505100049 13 360 0.0 3.2 0.00 0.00 0.00 77 994.7
20260505094524 14 360 0.0 4.8 0.00 0.00 0.00 77 994.7
20260505093022 14 360 0.0 4.8 0.00 0.00 0.00 76 994.5
20260505091519 14 360 1.6 8.0 0.00 0.00 0.00 76 994.2
20260505090016 15 360 1.6 6.4 0.00 0.00 0.00 75 994.0
20260505084513 15 360 0.0 6.4 0.00 0.00 0.00 74 994.0
20260505083012 15 360 0.0 6.4 0.00 0.00 0.00 73 994.0
20260505081511 15 360 0.0 4.8 0.00 0.00 0.00 72 993.9
20260505080011 15 360 1.6 8.0 0.00 0.00 0.00 72 993.9
20260505074509 15 360 0.0 8.0 0.00 0.00 0.00 71 993.8
20260505073022 15 360 1.6 8.0 0.00 0.00 0.00 69 993.8
20260505071504 16 360 0.0 9.7 0.00 0.00 0.00 69 993.7
20260505070003 16 360 0.0 8.0 0.00 0.00 0.00 68 993.6
20260505064501 16 360 3.2 14.5 0.00 0.00 0.00 67 993.6
20260505063117 16 360 1.6 12.9 0.00 0.00 0.00 67 993.7
20260505061559 16 360 3.2 8.0 0.00 0.00 0.00 67 993.8
20260505054557 16 360 4.8 12.9 0.00 0.00 0.00 66 993.9
20260505053055 16 360 1.6 9.7 0.00 0.00 0.00 65 993.9
20260505051555 16 360 4.8 9.7 0.00 0.00 0.00 65 993.9
20260505041549 16 360 6.4 9.7 0.00 0.00 0.00 59 994.1
20260505040047 16 360 0.0 6.4 0.00 0.00 0.00 58 994.1
20260505034550 16 360 3.2 8.0 0.00 0.00 0.00 60 993.9
20260505033046 15 360 3.2 9.7 0.00 0.00 0.00 62 994.0
20260505031550 13 360 0.0 4.8 0.00 0.00 0.00 65 994.0
20260505030045 13 360 0.0 0.0 0.00 0.00 0.00 68 994.1
20260505024549 14 360 0.0 0.0 0.00 0.00 0.00 67 994.1
20260505023050 15 360 0.0 0.0 0.00 0.00 0.00 67 994.0
20260505021545 15 360 0.0 0.0 0.00 0.00 0.00 65 993.8
20260505020046 16 360 0.0 0.0 0.00 0.00 0.00 65 993.7
20260505014550 16 360 0.0 0.0 0.00 0.00 0.00 62 993.5
20260505013041 17 360 0.0 0.0 0.00 0.00 0.00 59 993.3
20260505011543 17 360 0.0 0.0 0.00 0.00 0.00 55 993.0
20260505004541 20 360 0.0 0.0 0.00 0.00 0.00 48 992.9
20260505003044 21 360 0.0 3.2 0.00 0.00 0.00 46 992.8
20260505001540 21 360 1.6 8.0 0.00 0.00 0.00 41 992.8
20260505000045 21 360 1.6 6.4 0.00 0.00 0.00 42 992.7
20260504234539 22 360 1.6 4.8 0.00 0.00 0.00 41 992.4
20260504233039 22 360 1.6 6.4 0.00 0.00 0.00 39 992.2
20260504231544 22 360 3.2 6.4 0.00 0.00 0.00 39 992.1
20260504230044 23 360 0.0 3.2 0.00 0.00 0.00 42 992.1
20260504224538 23 360 3.2 8.0 0.00 0.00 0.00 35 992.1